Weather reports worldwide

Advertisment
Fair Isle, United Kingdom (3008): temperature & dewpoint: 19.09.2020 02:00:00 - 25.09.2020 02:00:00 (BST)Fair Isle, United Kingdom (3008): temperature -20cm & temperature -100cm: 19.09.2020 02:00:00 - 25.09.2020 02:00:00 (BST)Fair Isle, United Kingdom (3008): wind speed & gusts: 19.09.2020 02:00:00 - 25.09.2020 02:00:00 (BST)Fair Isle, United Kingdom (3008): wind direction: 19.09.2020 02:00:00 - 25.09.2020 02:00:00 (BST)Fair Isle, United Kingdom (3008): reduced air pressure: 19.09.2020 02:00:00 - 25.09.2020 02:00:00 (BST)Fair Isle, United Kingdom (3008): visibility: 19.09.2020 02:00:00 - 25.09.2020 02:00:00 (BST)Fair Isle, United Kingdom (3008): precipitation: 19.09.2020 02:00:00 - 25.09.2020 02:00:00 (BST)
Date & Time tt [°C] td [°C] tt -20cm [°C] tt -100cm [°C] ff [km/h] ff [kn] fx [km/h] fx [kn] dd ppp [hPa] vv [km] rr [mm]
25.09.2020 02:00:00 - - - - - - - - - - - -
25.09.2020 01:00:00 7,4 3,5 - - 15 8 - - N 1003,5 28 0,0
25.09.2020 00:00:00 8,2 3,3 - - 16 9 - - N 1002,8 40 0,0
24.09.2020 23:00:00 8,6 3,1 - - 24 13 - - NNW 1001,9 40 0,0
24.09.2020 22:00:00 8,6 3,3 - - 22 12 - - NNW 1001,0 40 0,0
24.09.2020 21:00:00 8,7 2,6 - - 28 15 - - NNW 1000,3 45 0,0
24.09.2020 20:00:00 8,8 3,4 - - 22 12 - - NNW 999,3 45 -
24.09.2020 19:00:00 9,0 3,3 - - 26 14 - - NNW 998,3 45 0,0
24.09.2020 18:00:00 9,0 3,8 - - 26 14 46 25 NNW 997,4 35 0,0
24.09.2020 17:00:00 9,3 4,2 - - 31 17 52 28 NNW 996,4 40 0,0
24.09.2020 16:00:00 9,6 5,2 - - 31 17 52 28 NNW 995,7 35 0,0
24.09.2020 15:00:00 9,4 4,6 - - 34 18 50 27 NNW 994,9 40 0,0
24.09.2020 14:00:00 9,7 4,8 - - 31 17 50 27 NNW 994,6 30 0,0
24.09.2020 13:00:00 9,4 4,2 - - 29 16 - - NNW 994,0 35 0,0
24.09.2020 12:00:00 9,0 3,7 - - 31 17 48 26 NNW 993,8 35 0,0
24.09.2020 11:00:00 8,5 3,5 - - 29 16 - - NNW 993,3 35 0,0
24.09.2020 10:00:00 8,3 3,1 12,2 12,0 29 16 - - N 993,4 50 0,0
24.09.2020 09:00:00 7,9 2,7 - - 31 17 46 25 N 993,4 50 0,0
24.09.2020 08:00:00 7,8 3,3 - - 26 14 - - N 993,7 50 0,0
24.09.2020 07:00:00 7,4 3,6 - - 24 13 - - N 993,9 50 0,0
24.09.2020 06:00:00 7,4 2,8 - - 26 14 - - N 994,4 50 0,0
24.09.2020 05:00:00 7,4 3,5 - - 24 13 - - N 994,9 45 -
24.09.2020 04:00:00 7,3 4,0 - - 21 11 - - NNE 995,6 40 0,0
24.09.2020 03:00:00 7,3 4,0 - - 16 9 - - NNE 996,3 45 -
24.09.2020 02:00:00 7,8 4,2 - - 16 9 - - NE 997,0 45 0,0
24.09.2020 01:00:00 7,3 4,0 - - 15 8 - - NE 997,6 50 0,0
24.09.2020 00:00:00 7,7 4,2 - - 15 8 - - ENE 998,6 50 0,0
23.09.2020 23:00:00 6,8 3,8 - - 11 6 - - NE 999,1 50 0,0
23.09.2020 22:00:00 6,0 3,2 - - 11 6 - - ENE 999,6 50 0,0
23.09.2020 21:00:00 6,2 3,7 - - 11 6 - - ENE 1000,1 50 0,0
23.09.2020 20:00:00 6,7 3,3 - - 9 5 - - ENE 1000,4 50 0,0
23.09.2020 19:00:00 8,4 5,0 - - 8 4 - - E 1000,5 50 0,0
23.09.2020 18:00:00 9,5 4,3 - - 5 3 - - ENE 1000,6 45 0,0
23.09.2020 17:00:00 9,8 4,8 - - 8 4 - - E 1001,1 35 0,0
23.09.2020 16:00:00 9,8 5,1 - - 8 4 - - ESE 1001,6 45 0,0
23.09.2020 15:00:00 9,8 5,1 - - 5 3 - - E 1001,6 50 0,0
23.09.2020 14:00:00 10,0 4,9 - - 8 4 - - NNE 1001,4 40 0,0
23.09.2020 13:00:00 10,6 5,8 - - 9 5 - - WNW 1001,4 35 0,0
23.09.2020 12:00:00 10,3 6,4 - - 9 5 - - NW 1001,4 50 0,4
23.09.2020 11:00:00 9,0 5,6 - - 15 8 - - WNW 1001,0 4,9 0,2
23.09.2020 10:00:00 10,0 5,8 12,5 12,0 11 6 - - W 1000,6 45 0,0
23.09.2020 09:00:00 9,4 6,0 - - 13 7 - - NW 999,8 45 0,0
23.09.2020 08:00:00 8,7 5,0 - - 15 8 - - NW 999,2 35 0,0
23.09.2020 07:00:00 8,5 5,2 - - 18 10 - - WNW 998,6 45 0,0
23.09.2020 06:00:00 8,3 5,4 - - 21 11 - - NW 997,8 30 0,0
23.09.2020 05:00:00 8,6 5,7 - - 24 13 - - WNW 997,1 40 0,0
23.09.2020 04:00:00 8,6 5,7 - - 29 16 48 26 WNW 996,6 35 -
23.09.2020 03:00:00 8,8 6,0 - - 29 16 46 25 WNW 995,8 35 0,0
23.09.2020 02:00:00 8,9 6,3 - - 31 17 50 27 WNW 994,7 35 0,0
23.09.2020 01:00:00 8,6 6,7 - - 28 15 50 27 WNW 993,9 35 0,0
23.09.2020 00:00:00 8,9 7,5 - - 31 17 50 27 WNW 992,7 11 0,0
22.09.2020 23:00:00 9,2 8,6 - - 31 17 46 25 WNW 991,6 17 0,6
22.09.2020 22:00:00 10,9 10,6 - - 28 15 63 34 W 990,3 11 0,0
22.09.2020 21:00:00 13,3 11,4 - - 37 20 55 30 SSW 989,5 19 0,0
22.09.2020 20:00:00 13,0 11,2 - - 42 23 55 30 S 989,6 19 0,0
22.09.2020 19:00:00 13,0 11,1 - - 41 22 57 31 S 989,8 25 0,0
22.09.2020 18:00:00 12,8 11,1 - - 44 24 57 31 S 990,4 16 -
22.09.2020 17:00:00 12,3 11,1 - - 42 23 59 32 S 991,1 14 0,4
22.09.2020 16:00:00 12,1 11,2 - - 41 22 59 32 S 992,0 12 -
22.09.2020 15:00:00 11,9 10,6 - - 46 25 63 34 S 993,0 11 0,4
22.09.2020 14:00:00 11,7 10,7 - - 42 23 59 32 S 993,6 8 0,6
22.09.2020 13:00:00 11,8 11,2 - - 37 20 48 26 S 994,3 10 0,6
22.09.2020 12:00:00 12,1 11,1 - - 29 16 - - S 995,0 18 0,6
22.09.2020 11:00:00 11,9 10,9 - - 34 18 46 25 S 996,1 11 0,2
22.09.2020 10:00:00 11,6 10,7 12,7 12,0 35 19 46 25 SSE 997,1 21 0,0
22.09.2020 09:00:00 11,5 11,4 - - 28 15 - - S 998,3 25 0,2
22.09.2020 08:00:00 11,5 11,5 - - 29 16 - - S 999,6 5 0,6
22.09.2020 07:00:00 11,7 11,6 - - 24 13 - - S 1001,2 0,4 1,6
22.09.2020 06:00:00 11,9 11,6 - - 21 11 - - S 1002,0 6 0,4
22.09.2020 05:00:00 12,0 11,6 - - 18 10 - - SSW 1003,2 7 0,0
22.09.2020 04:00:00 12,0 11,6 - - 16 9 - - SSW 1003,9 12 0,2
22.09.2020 03:00:00 12,1 11,6 - - 21 11 - - SW 1004,8 10 0,0
22.09.2020 02:00:00 12,1 11,5 - - 24 13 - - SW 1005,6 9 0,2
22.09.2020 01:00:00 12,0 11,4 - - 29 16 - - SSW 1005,6 13 0,2
22.09.2020 00:00:00 11,9 11,5 - - 26 14 - - SSW 1006,7 7 0,4
21.09.2020 23:00:00 11,9 11,4 - - 31 17 - - SSW 1007,2 11 0,2
21.09.2020 22:00:00 12,0 11,5 - - 26 14 - - SSW 1007,7 9 0,6
21.09.2020 21:00:00 12,1 11,4 - - 26 14 - - SW 1007,8 11 0,4
21.09.2020 20:00:00 12,1 11,5 - - 35 19 57 31 WSW 1008,0 8 0,4
21.09.2020 19:00:00 12,3 11,3 - - 34 18 54 29 SW 1008,2 10 0,2
21.09.2020 18:00:00 12,5 11,0 - - 39 21 57 31 WSW 1008,2 11 0,0
21.09.2020 17:00:00 12,5 11,0 - - 34 18 54 29 WSW 1008,4 15 0,0
21.09.2020 16:00:00 12,3 11,0 - - 29 16 52 28 SW 1008,9 11 0,2
21.09.2020 15:00:00 12,3 10,8 - - 41 22 61 33 WSW 1009,5 9 0,2
21.09.2020 14:00:00 12,4 10,7 - - 42 23 63 34 WSW 1009,7 11 0,4
21.09.2020 13:00:00 12,8 10,7 - - 34 18 65 35 SW 1009,3 13 0,0
21.09.2020 12:00:00 12,8 10,3 - - 44 24 61 33 WSW 1009,0 16 -
21.09.2020 11:00:00 12,9 10,2 - - 35 19 57 31 SW 1009,7 15 0,0
21.09.2020 10:00:00 12,6 10,2 - - 31 17 59 32 SW 1010,5 12 0,0
21.09.2020 09:00:00 12,5 9,9 - - 34 18 57 31 SW 1010,2 15 0,0
21.09.2020 08:00:00 12,3 9,6 - - 29 16 46 25 SW 1010,3 21 0,0
21.09.2020 07:00:00 11,7 9,6 - - 28 15 - - WSW 1010,4 17 0,0
21.09.2020 06:00:00 11,4 10,0 - - 26 14 - - WSW 1010,6 16 0,0
21.09.2020 05:00:00 11,4 10,9 - - 22 12 - - SW 1010,9 14 0,0
21.09.2020 04:00:00 11,6 11,2 - - 24 13 - - WSW 1011,3 11 0,0
21.09.2020 03:00:00 11,7 11,4 - - 22 12 - - WSW 1012,0 9 0,0
21.09.2020 02:00:00 12,1 11,7 - - 22 12 - - SSW 1012,7 6 0,0
21.09.2020 01:00:00 12,0 11,7 - - 22 12 - - SSW 1013,8 8 0,0
21.09.2020 00:00:00 12,0 11,8 - - 24 13 - - SSW 1014,9 5 0,0
20.09.2020 23:00:00 11,4 11,2 - - 21 11 - - S 1015,2 0,2 0,0
20.09.2020 22:00:00 11,1 10,9 - - 22 12 - - S 1016,6 0,3 0,0
20.09.2020 21:00:00 11,6 11,4 - - 22 12 - - SSW 1017,9 0,1 0,0
20.09.2020 20:00:00 12,1 11,9 - - 22 12 - - S 1018,4 14 0,0
20.09.2020 19:00:00 12,1 11,8 - - 15 8 - - SSW 1018,9 9 0,0
20.09.2020 18:00:00 12,1 11,8 - - 16 9 - - WSW 1019,7 13 0,0
20.09.2020 17:00:00 12,1 11,8 - - 16 9 - - WSW 1020,5 19 0,0
20.09.2020 16:00:00 12,3 11,9 - - 21 11 - - WSW 1020,8 10 0,0
20.09.2020 15:00:00 12,2 11,9 - - 21 11 - - WSW 1020,9 12 -
20.09.2020 14:00:00 12,3 12,0 - - 22 12 - - WSW 1021,5 0,8 0,0
20.09.2020 13:00:00 12,5 12,2 - - 21 11 - - WSW 1021,9 2,5 0,0
20.09.2020 12:00:00 12,2 11,9 - - 22 12 - - WSW 1022,2 3,8 0,0
20.09.2020 11:00:00 12,3 12,0 - - 18 10 - - SW 1022,4 15 0,0
20.09.2020 10:00:00 11,8 11,6 - - 18 10 - - WSW 1022,6 0,6 0,0
20.09.2020 09:00:00 11,1 10,9 - - 15 8 - - WSW 1022,5 0,1 -
20.09.2020 08:00:00 10,9 10,6 - - 15 8 - - WSW 1022,3 0,1 0,0
20.09.2020 07:00:00 10,6 10,4 - - 13 7 - - W 1022,6 0,1 0,0
20.09.2020 06:00:00 11,2 10,9 - - 16 9 - - W 1022,7 0,1 0,0
20.09.2020 05:00:00 11,2 10,9 - - 15 8 - - WSW 1022,6 0,1 0,0
20.09.2020 04:00:00 10,8 10,5 - - 11 6 - - WSW 1023,0 0,1 0,2
20.09.2020 03:00:00 11,3 11,0 - - 11 6 - - WSW 1023,6 0,2 0,0
20.09.2020 02:00:00 11,8 11,5 - - 13 7 - - WSW 1023,8 0,1 0,0
20.09.2020 01:00:00 11,9 11,5 - - 9 5 - - W 1024,1 0,1 0,0
20.09.2020 00:00:00 12,0 11,6 - - 11 6 - - SW 1023,9 0,1 0,0
19.09.2020 23:00:00 11,8 11,5 - - 11 6 - - W 1024,7 0,7 -
19.09.2020 22:00:00 11,6 11,3 - - 11 6 - - W 1024,8 0,1 0,0
19.09.2020 21:00:00 11,5 11,1 - - 13 7 - - W 1025,0 10 0,0
19.09.2020 20:00:00 10,6 10,1 - - 9 5 - - SW 1024,7 0,5 0,0
19.09.2020 19:00:00 11,3 10,5 - - 9 5 - - SSW 1024,8 9 0,0
19.09.2020 18:00:00 12,2 11,1 - - 9 5 - - SW 1025,0 24 0,0
19.09.2020 17:00:00 12,3 11,7 - - 13 7 - - S 1025,3 35 0,0
19.09.2020 16:00:00 12,3 12,1 - - 13 7 - - S 1025,7 0,8 0,0
19.09.2020 15:00:00 12,9 12,7 - - 11 6 - - S 1026,0 2,1 0,0
19.09.2020 14:00:00 12,5 12,3 - - 11 6 - - SSW 1026,7 0,2 0,0
19.09.2020 13:00:00 12,5 12,3 - - 15 8 - - SSW 1027,1 0,1 0,0
19.09.2020 12:00:00 12,4 12,3 - - 13 7 - - SSW 1027,2 0,2 0,0
19.09.2020 11:00:00 12,5 12,3 - - 9 5 - - SSE 1027,5 0,3 0,0
19.09.2020 10:00:00 12,2 12,1 12,7 12,0 9 5 - - SE 1027,7 0,2 0,0
19.09.2020 09:00:00 12,1 12,1 - - 11 6 - - SSE 1027,7 0,2 0,0
19.09.2020 08:00:00 11,9 11,8 - - 8 4 - - SE 1027,8 0,2 0,0
19.09.2020 07:00:00 11,7 11,2 - - 8 4 - - SE 1027,9 0,2 0,0
19.09.2020 06:00:00 11,6 11,2 - - 4 2 - - SE 1027,8 0,2 0,0
19.09.2020 05:00:00 11,5 11,0 - - 4 2 - - ESE 1028,0 0,2 0,0
19.09.2020 04:00:00 11,6 11,0 - - 0 0 - - N 1028,2 0,1 -
19.09.2020 03:00:00 11,6 11,1 - - 2 1 - - ENE 1028,7 0,9 0,0
19.09.2020 02:00:00 11,7 11,2 - - 2 1 - - S 1029,0 0,2 0,0

tt = temperature
td = dewpoint
tt -20cm = temperature -20cm
tt -100cm = temperature -100cm
ff = wind speed
fx = gusts
dd = wind direction
ppp = reduced air pressure
vv = visibility
rr = precipitation

Next stations